Visibility
15.0 15.0 14.9 15.0 15.0 15.0 15.0 15.0 15.0 15.0 15.0 15.0 14.9 9.6 10.8 15.0 15.0 15.0 15.0 15.0 15.0 15.0 15.0 15.0 15.0 15.0 15.0 15.0 15.0 15.0 15.0 15.0 15.0 15.0 15.0 15.0 15.0 15.0 15.0 15.0 15.0 15.0 15.0 15.0 15.0 15.0 15.0
15.0 15.0 15.0 15.0 15.0 15.0 15.0 15.0 15.0 15.0 15.0 15.0 15.0 15.0 11.3 12.8 11.1 15.0 15.0 15.0 15.0 15.0 15.0 15.0 15.0 15.0 15.0 0.3 15.0 15.0 15.0 15.0 15.0 15.0 15.0 15.0 15.0 15.0 15.0 15.0 15.0 15.0 15.0 15.0 15.0 15.0 15.0
15.0 11.2 15.0 15.0 15.0 15.0 15.0 15.0 15.0 15.0 15.0 15.0 15.0 15.0 15.0 14.7 12.3 14.5 15.0 15.0 15.0 15.0 15.0 15.0 15.0 15.0 15.0 14.0 15.0 15.0 15.0 15.0 15.0 15.0 15.0 15.0 15.0 15.0 15.0 15.0 15.0 15.0 15.0 15.0 15.0 15.0 15.0
15.0 15.0 15.0 15.0 15.0 15.0 15.0 15.0 15.0 15.0 15.0 15.0 15.0 15.0 15.0 15.0 15.0 15.0 13.9 5.2 15.0 15.0 15.0 15.0 15.0 14.4 0.2 15.0 15.0 15.0 15.0 15.0 15.0 15.0 15.0 15.0 15.0 15.0 15.0 15.0 15.0 15.0 15.0 15.0 15.0 15.0 15.0
15.0 15.0 15.0 15.0 15.0 15.0 15.0 15.0 15.0 15.0 15.0 15.0 15.0 15.0 15.0 15.0 15.0 15.0 12.9 3.3 6.7 10.1 15.0 15.0 15.0 6.8 14.0 15.0 15.0 15.0 15.0 15.0 15.0 15.0 15.0 15.0 15.0 15.0 15.0 15.0 15.0 15.0 15.0 15.0 15.0 15.0 15.0
10.6 15.0 15.0 15.0 15.0 15.0 15.0 15.0 15.0 15.0 15.0 15.0 15.0 15.0 15.0 15.0 15.0 15.0 15.0 8.4 5.3 0.6 1.2 14.6 8.1 2.2 15.0 15.0 15.0 15.0 15.0 15.0 15.0 15.0 15.0 15.0 15.0 15.0 15.0 15.0 15.0 15.0 15.0 15.0 15.0 15.0 15.0
11.9 7.9 10.8 15.0 15.0 15.0 15.0 15.0 15.0 15.0 15.0 15.0 15.0 15.0 15.0 14.5 15.0 15.0 15.0 1.8 0.0 0.1 0.1 1.7 14.9 14.9 15.0 15.0 15.0 15.0 15.0 15.0 15.0 15.0 15.0 15.0 15.0 15.0 15.0 15.0 15.0 15.0 15.0 15.0 15.0 15.0 15.0
14.5 7.5 7.8 12.3 15.0 15.0 15.0 15.0 15.0 15.0 15.0 15.0 15.0 13.2 15.0 15.0 15.0 15.0 15.0 0.1 14.9 5.1 0.2 6.3 15.0 15.0 15.0 15.0 15.0 15.0 15.0 15.0 15.0 15.0 15.0 15.0 15.0 15.0 15.0 15.0 15.0 15.0 15.0 15.0 15.0 15.0 15.0
15.0 8.6 9.5 12.3 12.6 8.8 13.0 15.0 15.0 15.0 15.0 15.0 15.0 15.0 15.0 15.0 14.4 13.0 15.0 15.0 15.0 8.2 0.1 13.7 15.0 15.0 15.0 15.0 15.0 15.0 15.0 15.0 15.0 15.0 15.0 15.0 15.0 15.0 15.0 15.0 15.0 15.0 15.0 15.0 15.0 15.0 15.0
15.0 15.0 15.0 15.0 15.0 15.0 15.0 13.9 11.1 13.6 12.7 15.0 15.0 15.0 15.0 8.5 8.7 15.0 15.0 15.0 15.0 15.0 0.1 0.3 0.1 9.6 15.0 15.0 15.0 15.0 15.0 15.0 15.0 15.0 15.0 15.0 15.0 15.0 15.0 15.0 15.0 15.0 15.0 15.0 15.0 15.0 15.0
15.0 15.0 15.0 15.0 15.0 15.0 15.0 15.0 15.0 13.0 13.9 12.3 15.0 15.0 15.0 14.7 15.0 15.0 14.3 15.0 15.0 1.7 0.0 3.3 12.8 15.0 15.0 15.0 15.0 15.0 15.0 15.0 15.0 15.0 15.0 15.0 15.0 15.0 15.0 15.0 15.0 15.0 15.0 15.0 15.0 15.0 15.0
15.0 15.0 15.0 15.0 15.0 15.0 12.9 15.0 14.2 15.0 14.2 15.0 13.6 15.0 14.5 15.0 13.6 15.0 15.0 15.0 13.2 0.0 0.0 0.3 15.0 15.0 15.0 15.0 15.0 15.0 15.0 15.0 15.0 15.0 15.0 15.0 15.0 15.0 15.0 15.0 15.0 15.0 15.0 15.0 15.0 15.0 15.0
15.0 15.0 15.0 15.0 15.0 15.0 15.0 15.0 14.9 12.4 13.9 14.8 14.2 15.0 13.8 15.0 15.0 13.3 15.0 15.0 0.6 0.0 6.3 0.5 15.0 15.0 15.0 15.0 15.0 15.0 15.0 15.0 15.0 15.0 15.0 15.0 15.0 15.0 15.0 15.0 15.0 15.0 15.0 15.0 9.6 15.0 15.0
15.0 15.0 15.0 15.0 15.0 15.0 15.0 15.0 15.0 15.0 14.3 15.0 13.8 5.9 14.8 15.0 15.0 10.8 5.7 0.1 0.0 13.1 13.1 15.0 15.0 15.0 15.0 15.0 15.0 15.0 15.0 15.0 15.0 15.0 15.0 15.0 15.0 15.0 15.0 15.0 15.0 15.0 15.0 14.5 6.5 15.0 15.0
15.0 15.0 15.0 15.0 15.0 15.0 15.0 15.0 14.8 15.0 14.8 14.7 14.3 13.7 4.4 11.7 15.0 14.6 4.9 0.0 4.1 15.0 15.0 15.0 15.0 15.0 14.9 15.0 15.0 15.0 15.0 15.0 15.0 15.0 15.0 15.0 15.0 15.0 15.0 15.0 15.0 15.0 15.0 15.0 15.0 15.0 15.0
15.0 15.0 15.0 15.0 15.0 15.0 15.0 15.0 15.0 15.0 14.6 11.4 9.9 1.2 3.3 15.0 15.0 7.7 0.8 0.1 13.4 15.0 15.0 15.0 15.0 15.0 15.0 15.0 15.0 15.0 15.0 15.0 15.0 15.0 15.0 15.0 15.0 15.0 15.0 15.0 15.0 15.0 15.0 15.0 15.0 0.5 11.0
15.0 15.0 15.0 15.0 15.0 13.9 13.5 15.0 15.0 14.7 15.0 11.3 0.2 0.0 10.1 15.0 14.5 0.6 0.0 0.6 15.0 15.0 15.0 7.9 11.9 15.0 10.0 15.0 15.0 15.0 15.0 15.0 15.0 15.0 15.0 15.0 15.0 15.0 15.0 15.0 15.0 15.0 15.0 15.0 15.0 15.0 15.0
15.0 15.0 15.0 15.0 15.0 13.6 12.4 15.0 15.0 15.0 10.3 6.5 0.1 0.0 15.0 15.0 0.0 0.1 0.1 14.9 15.0 15.0 15.0 15.0 14.3 9.7 15.0 15.0 15.0 15.0 15.0 15.0 15.0 15.0 15.0 15.0 15.0 15.0 15.0 15.0 15.0 15.0 15.0 15.0 15.0 15.0 15.0
15.0 15.0 15.0 15.0 15.0 14.9 15.0 15.0 14.6 14.4 9.8 5.7 0.0 0.0 12.5 15.0 0.0 0.1 7.5 15.0 15.0 15.0 15.0 13.2 3.5 7.0 8.1 10.9 11.7 15.0 15.0 15.0 15.0 15.0 15.0 15.0 14.4 11.9 12.1 15.0 8.9 15.0 15.0 15.0 15.0 15.0 15.0
15.0 15.0 15.0 15.0 15.0 15.0 15.0 15.0 14.8 8.6 14.9 0.7 0.0 0.0 0.0 0.1 4.9 1.2 12.9 15.0 8.7 15.0 15.0 15.0 5.7 12.0 0.7 2.6 9.1 9.6 15.0 15.0 15.0 15.0 15.0 15.0 15.0 15.0 15.0 15.0 15.0 15.0 15.0 15.0 15.0 15.0 15.0
15.0 15.0 15.0 15.0 15.0 15.0 15.0 15.0 15.0 15.0 15.0 0.2 0.1 0.1 7.1 0.1 0.0 15.0 15.0 15.0 15.0 14.8 15.0 15.0 15.0 13.2 0.3 0.0 1.0 2.8 7.4 12.9 15.0 15.0 15.0 15.0 15.0 15.0 15.0 15.0 15.0 15.0 15.0 15.0 15.0 15.0 14.5
15.0 15.0 15.0 15.0 15.0 15.0 15.0 15.0 15.0 15.0 15.0 0.0 0.1 0.1 10.0 14.5 9.4 15.0 15.0 15.0 15.0 15.0 15.0 15.0 15.0 15.0 15.0 0.1 0.5 15.0 3.5 4.0 15.0 15.0 10.6 15.0 15.0 15.0 15.0 15.0 15.0 15.0 15.0 15.0 15.0 15.0 15.0
15.0 15.0 15.0 15.0 15.0 15.0 15.0 6.5 15.0 15.0 6.3 0.2 0.3 9.1 15.0 14.2 9.0 1.2 7.2 15.0 15.0 15.0 15.0 15.0 15.0 15.0 15.0 15.0 14.9 15.0 15.0 0.5 1.8 14.2 15.0 15.0 15.0 15.0 15.0 15.0 12.5 0.0 15.0 15.0 15.0 15.0 15.0
15.0 15.0 15.0 15.0 15.0 15.0 15.0 3.6 15.0 5.1 4.9 2.7 2.6 13.6 15.0 0.1 1.7 0.6 15.0 15.0 15.0 15.0 15.0 15.0 15.0 15.0 15.0 15.0 13.2 9.1 7.8 15.0 13.3 6.4 15.0 15.0 15.0 15.0 15.0 6.0 0.0 9.6 15.0 15.0 15.0 15.0 15.0
15.0 15.0 15.0 15.0 15.0 15.0 15.0 3.3 14.7 3.1 2.5 4.2 10.9 15.0 15.0 0.2 12.5 15.0 15.0 15.0 15.0 15.0 15.0 15.0 15.0 15.0 15.0 15.0 1.4 0.0 0.0 0.1 0.1 1.3 15.0 15.0 10.5 0.0 0.0 0.0 13.5 15.0 15.0 15.0 15.0 15.0 15.0
15.0 15.0 15.0 15.0 15.0 15.0 15.0 5.4 6.3 4.5 4.1 5.1 6.6 15.0 15.0 4.0 1.1 15.0 15.0 15.0 15.0 15.0 15.0 15.0 15.0 15.0 8.1 4.4 0.0 0.0 0.3 0.1 0.0 0.1 14.2 15.0 10.0 13.1 0.0 0.1 0.1 15.0 15.0 15.0 15.0 15.0 15.0
15.0 15.0 15.0 15.0 15.0 15.0 15.0 14.4 4.8 10.2 6.1 15.0 15.0 15.0 15.0 7.3 7.0 15.0 4.0 11.9 15.0 15.0 15.0 15.0 15.0 15.0 13.5 0.1 0.0 0.1 0.6 3.4 0.1 0.4 0.0 0.2 9.7 0.4 0.2 0.2 9.3 15.0 15.0 15.0 15.0 15.0 15.0
15.0 15.0 15.0 15.0 15.0 15.0 15.0 15.0 10.2 5.7 11.5 6.6 14.1 15.0 15.0 0.9 2.5 15.0 15.0 15.0 6.1 0.1 0.1 0.4 12.5 2.1 5.9 0.1 0.1 0.0 0.0 0.1 0.1 2.4 0.6 2.0 0.1 0.1 0.1 0.1 0.2 15.0 15.0 15.0 15.0 15.0 15.0
15.0 15.0 15.0 15.0 15.0 15.0 15.0 15.0 15.0 10.3 8.6 8.4 5.3 3.6 6.3 0.3 0.0 15.0 15.0 15.0 15.0 14.3 15.0 1.5 0.1 0.3 0.3 0.8 0.1 0.0 0.0 0.0 0.1 0.1 15.0 2.4 14.5 13.4 14.9 15.0 15.0 15.0 15.0 15.0 15.0 15.0 15.0